This is the latest recevied weather packets stored in our database for station/object KI5RAB. If no packets are shown the sender has not sent any weather packets the latest 10 day(s).
| Time | Temp. | Humidity | Pressure | Rain* | Wind** | Luminosity | Snow |
|---|---|---|---|---|---|---|---|
| 1788282403 | 32.78° C | 52% | 1020.2 hPa | 0 mm | - | 661 W/m² | - |
| 1788282103 | 32.78° C | 54% | 1020.2 hPa | 0 mm | - | 649 W/m² | - |
| 1788281802 | 32.78° C | 55% | 1020.3 hPa | 0 mm | - | 645 W/m² | - |
| 1788281497 | 33.33° C | 53% | 1020.2 hPa | 0 mm | - | 639 W/m² | - |
| 1788281193 | 32.78° C | 55% | 1020.2 hPa | 0 mm | - | 634 W/m² | - |
| 1788280888 | 32.78° C | 56% | 1020.3 hPa | 0 mm | - | 620 W/m² | - |
| 1788280584 | 32.78° C | 56% | 1020.2 hPa | 0 mm | - | 607 W/m² | - |
| 1788280283 | 32.78° C | 57% | 1020.4 hPa | 0 mm | - | 599 W/m² | - |
| 1788279978 | 32.78° C | 56% | 1020.4 hPa | 0 mm | - | 591 W/m² | - |
| 1788279677 | 32.78° C | 57% | 1020.5 hPa | 0 mm | - | 570 W/m² | - |
| 1788279377 | 32.22° C | 57% | 1020.4 hPa | 0 mm | - | 565 W/m² | - |
| 1788279076 | 32.78° C | 57% | 1020.2 hPa | 0 mm | - | 559 W/m² | - |
| 1788278773 | 32.22° C | 57% | 1020.1 hPa | 0 mm | - | 552 W/m² | - |
| 1788278468 | 31.67° C | 59% | 1020.3 hPa | 0 mm | - | 541 W/m² | - |
| 1788278166 | 32.22° C | 62% | 1020.3 hPa | 0 mm | - | 526 W/m² | - |
| 1788277862 | 31.67° C | 62% | 1020.4 hPa | 0 mm | - | 514 W/m² | - |
| 1788277562 | 31.11° C | 64% | 1020.2 hPa | 0 mm | - | 499 W/m² | - |
| 1788277256 | 31.67° C | 62% | 1020.1 hPa | 0 mm | - | 490 W/m² | - |
| 1788276952 | 31.67° C | 62% | 1020.3 hPa | 0 mm | - | 477 W/m² | - |
| 1788276645 | 31.11° C | 65% | 1020.3 hPa | 0 mm | - | 461 W/m² | - |
| 1788276340 | 31.11° C | 65% | 1020.1 hPa | 0 mm | - | 448 W/m² | - |
| 1788276039 | 30.56° C | 66% | 1020.3 hPa | 0 mm | - | 434 W/m² | - |
| 1788275735 | 31.11° C | 65% | 1020.4 hPa | 0 mm | - | 418 W/m² | - |
| 1788275435 | 30.56° C | 68% | 1020.2 hPa | 0 mm | - | 403 W/m² | - |
| 1788275133 | 30° C | 69% | 1020.2 hPa | 0 mm | - | 391 W/m² | - |
* Rain latest hour (hover to see other rain measurements)
** Current wind speed in m/s (hover to see current wind gust speed)